QPF
0.00 0.00 0.00 0.00 0.00 0.00 0.00 0.00 0.00 0.00 0.00 0.00 0.01 0.01 0.02 0.02 0.01 0.01 0.01 0.03 0.05 0.07 0.10 0.20 0.24 0.30 0.28 0.24 0.20 0.14 0.11 0.12 0.11 0.09 0.09 0.10 0.11 0.12 0.16 0.20 0.19 0.14 0.15 0.16
0.00 0.00 0.00 0.00 0.00 0.00 0.00 0.00 0.00 0.00 0.00 0.00 0.01 0.02 0.03 0.04 0.03 0.02 0.04 0.06 0.07 0.11 0.15 0.24 0.35 0.53 0.54 0.47 0.36 0.28 0.21 0.21 0.21 0.16 0.14 0.14 0.13 0.13 0.14 0.16 0.16 0.15 0.16 0.16
0.00 0.00 0.00 0.00 0.00 0.00 0.00 0.00 0.00 0.00 0.01 0.01 0.01 0.04 0.06 0.06 0.05 0.04 0.08 0.11 0.16 0.19 0.21 0.27 0.42 0.57 0.63 0.62 0.55 0.45 0.35 0.33 0.40 0.33 0.24 0.20 0.19 0.20 0.21 0.18 0.17 0.17 0.17 0.17
0.00 0.00 0.00 0.00 0.00 0.00 0.00 0.00 0.00 0.00 0.01 0.02 0.01 0.04 0.09 0.08 0.08 0.06 0.09 0.14 0.18 0.22 0.29 0.41 0.54 0.61 0.64 0.69 0.65 0.59 0.49 0.39 0.36 0.35 0.33 0.32 0.32 0.31 0.31 0.31 0.31 0.30 0.28 0.25
0.00 0.00 0.00 0.00 0.00 0.00 0.00 0.00 0.00 0.01 0.00 0.01 0.02 0.04 0.12 0.15 0.12 0.09 0.09 0.11 0.14 0.16 0.26 0.42 0.54 0.57 0.53 0.50 0.53 0.53 0.53 0.47 0.47 0.44 0.43 0.44 0.42 0.39 0.36 0.31 0.30 0.30 0.27 0.23
0.00 0.00 0.00 0.00 0.00 0.00 0.00 0.00 0.00 0.00 0.01 0.02 0.01 0.04 0.11 0.20 0.17 0.12 0.14 0.17 0.16 0.12 0.16 0.27 0.41 0.37 0.39 0.43 0.45 0.47 0.46 0.46 0.46 0.46 0.46 0.45 0.44 0.44 0.41 0.35 0.28 0.23 0.20 0.16
0.00 0.00 0.00 0.00 0.00 0.00 0.00 0.00 0.00 0.00 0.01 0.02 0.01 0.04 0.10 0.18 0.20 0.14 0.14 0.17 0.19 0.11 0.11 0.24 0.31 0.25 0.23 0.36 0.52 0.53 0.52 0.48 0.50 0.52 0.51 0.48 0.45 0.42 0.35 0.30 0.23 0.19 0.15 0.13
0.01 0.01 0.01 0.00 0.00 0.00 0.00 0.00 0.00 0.00 0.01 0.01 0.03 0.07 0.11 0.17 0.21 0.16 0.13 0.11 0.10 0.10 0.09 0.10 0.18 0.16 0.20 0.22 0.29 0.34 0.37 0.36 0.35 0.33 0.34 0.33 0.30 0.27 0.26 0.22 0.18 0.14 0.12 0.10
0.02 0.02 0.01 0.01 0.00 0.00 0.00 0.00 0.00 0.01 0.01 0.02 0.09 0.11 0.14 0.15 0.14 0.13 0.08 0.07 0.07 0.06 0.06 0.06 0.07 0.09 0.16 0.21 0.23 0.22 0.21 0.21 0.22 0.21 0.19 0.18 0.18 0.17 0.17 0.17 0.14 0.11 0.09 0.07
0.02 0.04 0.02 0.01 0.00 0.00 0.00 0.00 0.00 0.01 0.01 0.02 0.09 0.16 0.21 0.26 0.22 0.12 0.07 0.05 0.04 0.04 0.04 0.04 0.04 0.05 0.07 0.10 0.15 0.17 0.13 0.12 0.11 0.11 0.11 0.10 0.11 0.11 0.11 0.11 0.10 0.08 0.07 0.06
0.03 0.04 0.03 0.01 0.01 0.00 0.00 0.00 0.01 0.01 0.01 0.03 0.08 0.19 0.33 0.45 0.41 0.21 0.10 0.06 0.04 0.03 0.03 0.03 0.03 0.03 0.03 0.04 0.05 0.07 0.07 0.06 0.06 0.06 0.06 0.06 0.07 0.08 0.08 0.08 0.08 0.08 0.07 0.05
0.03 0.03 0.03 0.01 0.01 0.01 0.01 0.01 0.01 0.01 0.02 0.04 0.09 0.28 0.59 0.66 0.45 0.25 0.12 0.07 0.04 0.03 0.03 0.02 0.02 0.02 0.02 0.02 0.02 0.03 0.03 0.03 0.03 0.03 0.03 0.04 0.05 0.05 0.05 0.05 0.05 0.05 0.04 0.03
0.02 0.03 0.05 0.02 0.01 0.01 0.01 0.02 0.01 0.01 0.02 0.05 0.11 0.41 0.84 0.86 0.58 0.31 0.13 0.06 0.04 0.03 0.02 0.02 0.02 0.02 0.02 0.02 0.01 0.01 0.01 0.01 0.01 0.02 0.02 0.02 0.02 0.02 0.03 0.02 0.03 0.03 0.02 0.02
0.01 0.03 0.05 0.05 0.03 0.03 0.03 0.02 0.02 0.02 0.04 0.08 0.11 0.19 0.34 0.38 0.36 0.23 0.12 0.06 0.03 0.02 0.02 0.02 0.02 0.02 0.01 0.01 0.01 0.01 0.01 0.01 0.01 0.01 0.01 0.01 0.01 0.01 0.01 0.01 0.01 0.01 0.01 0.01
0.02 0.04 0.03 0.04 0.04 0.05 0.05 0.05 0.03 0.03 0.04 0.06 0.10 0.15 0.20 0.18 0.13 0.08 0.06 0.04 0.03 0.02 0.01 0.01 0.01 0.01 0.01 0.01 0.01 0.01 0.01 0.01 0.00 0.00 0.00 0.00 0.00 0.00 0.00 0.00 0.00 0.00 0.00 0.00
0.02 0.03 0.03 0.05 0.05 0.07 0.08 0.07 0.05 0.05 0.04 0.05 0.07 0.15 0.19 0.17 0.12 0.09 0.06 0.04 0.02 0.02 0.02 0.02 0.01 0.01 0.01 0.01 0.01 0.00 0.00 0.00 0.00 0.00 0.00 0.00 0.00 0.00 0.00 0.00 0.00 0.00 0.00 0.00
0.02 0.05 0.06 0.07 0.07 0.09 0.10 0.08 0.06 0.05 0.05 0.06 0.08 0.11 0.13 0.11 0.10 0.10 0.07 0.05 0.04 0.04 0.02 0.02 0.02 0.01 0.01 0.01 0.01 0.00 0.01 0.01 0.00 0.00 0.00 0.00 0.00 0.00 0.00 0.00 0.00 0.00 0.00 0.00
0.03 0.03 0.04 0.04 0.07 0.11 0.11 0.05 0.07 0.06 0.05 0.05 0.06 0.08 0.11 0.10 0.08 0.08 0.08 0.08 0.08 0.07 0.06 0.06 0.06 0.04 0.03 0.02 0.01 0.00 0.01 0.01 0.00 0.00 0.00 0.00 0.00 0.00 0.00 0.00 0.00 0.00 0.00 0.00
0.01 0.02 0.03 0.04 0.06 0.09 0.07 0.05 0.03 0.04 0.03 0.04 0.05 0.04 0.06 0.06 0.06 0.08 0.09 0.10 0.10 0.08 0.07 0.06 0.06 0.04 0.03 0.01 0.00 0.00 0.00 0.00 0.00 0.00 0.00 0.00 0.00 0.00 0.00 0.00 0.00 0.00 0.00 0.00
0.01 0.01 0.02 0.03 0.05 0.06 0.05 0.03 0.02 0.02 0.03 0.05 0.06 0.05 0.05 0.05 0.05 0.08 0.08 0.06 0.05 0.05 0.04 0.03 0.03 0.02 0.02 0.01 0.01 0.01 0.01 0.00 0.00 0.00 0.00 0.00 0.00 0.00 0.00 0.00 0.00 0.00 0.00 0.00
0.00 0.01 0.01 0.02 0.04 0.03 0.02 0.01 0.01 0.02 0.03 0.03 0.04 0.05 0.05 0.05 0.04 0.03 0.03 0.04 0.05 0.04 0.04 0.04 0.04 0.04 0.03 0.02 0.01 0.01 0.00 0.00 0.00 0.00 0.00 0.00 0.00 0.00 0.00 0.00 0.00 0.00 0.00 0.00
0.00 0.01 0.01 0.02 0.02 0.01 0.01 0.01 0.01 0.02 0.02 0.01 0.02 0.03 0.03 0.03 0.03 0.02 0.02 0.03 0.04 0.04 0.05 0.05 0.05 0.05 0.04 0.02 0.01 0.01 0.00 0.00 0.00 0.00 0.00 0.00 0.00 0.00 0.00 0.00 0.00 0.00 0.00 0.00
0.00 0.00 0.00 0.01 0.01 0.01 0.01 0.00 0.00 0.01 0.01 0.01 0.01 0.01 0.01 0.01 0.01 0.02 0.03 0.04 0.03 0.03 0.04 0.05 0.07 0.07 0.05 0.03 0.02 0.01 0.00 0.00 0.00 0.00 0.00 0.00 0.00 0.00 0.00 0.00 0.00 0.00 0.00 0.00
0.00 0.00 0.00 0.00 0.01 0.00 0.00 0.00 0.00 0.00 0.00 0.00 0.01 0.00 0.00 0.01 0.01 0.02 0.04 0.05 0.05 0.04 0.03 0.03 0.04 0.04 0.03 0.02 0.01 0.01 0.00 0.00 0.00 0.00 0.00 0.00 0.00 0.00 0.00 0.00 0.00 0.00 0.00 0.00
0.00 0.00 0.00 0.00 0.00 0.00 0.00 0.00 0.00 0.00 0.00 0.00 0.01 0.01 0.00 0.01 0.01 0.02 0.02 0.03 0.04 0.03 0.02 0.02 0.02 0.02 0.01 0.01 0.01 0.01 0.00 0.00 0.00 0.00 0.00 0.01 0.00 0.00 0.00 0.00 0.00 0.00 0.00 0.00
0.00 0.00 0.00 0.00 0.00 0.00 0.00 0.00 0.00 0.00 0.00 0.00 0.00 0.00 0.00 0.00 0.01 0.01 0.01 0.01 0.02 0.01 0.01 0.01 0.01 0.01 0.01 0.01 0.01 0.01 0.01 0.01 0.01 0.00 0.00 0.00 0.00 0.00 0.00 0.00 0.00 0.00 0.00 0.00
MSLP
1012.14 1012.81 1013.25 1013.45 1013.39 1013.14 1012.74 1012.27 1011.80 1011.36 1010.97 1010.62 1010.29 1009.95 1009.59 1009.20 1008.78 1008.37 1007.98 1007.66 1007.41 1007.27 1007.21 1007.23 1007.30 1007.41 1007.56 1007.74 1007.99 1008.31 1008.76 1009.35 1010.09 1010.95 1011.92 1012.94 1013.95 1014.88 1015.68 1016.31 1016.78 1017.09 1017.28 1017.40
1012.25 1012.74 1013.00 1013.04 1012.87 1012.56 1012.19 1011.80 1011.46 1011.18 1010.95 1010.74 1010.53 1010.28 1009.98 1009.62 1009.23 1008.84 1008.49 1008.21 1008.02 1007.92 1007.90 1007.93 1007.98 1008.04 1008.11 1008.20 1008.34 1008.58 1008.95 1009.49 1010.21 1011.09 1012.10 1013.17 1014.23 1015.22 1016.07 1016.74 1017.24 1017.58 1017.79 1017.93
1012.20 1012.49 1012.55 1012.42 1012.15 1011.82 1011.50 1011.23 1011.07 1010.98 1010.95 1010.93 1010.86 1010.73 1010.52 1010.22 1009.88 1009.55 1009.25 1009.03 1008.91 1008.86 1008.87 1008.92 1008.96 1008.99 1008.99 1008.99 1009.03 1009.17 1009.46 1009.92 1010.59 1011.44 1012.43 1013.50 1014.58 1015.59 1016.46 1017.17 1017.71 1018.08 1018.33 1018.51
1012.06 1012.13 1012.00 1011.71 1011.36 1011.03 1010.79 1010.69 1010.72 1010.85 1011.04 1011.22 1011.33 1011.33 1011.21 1010.99 1010.71 1010.43 1010.19 1010.03 1009.96 1009.97 1010.04 1010.11 1010.16 1010.16 1010.12 1010.06 1010.03 1010.08 1010.28 1010.66 1011.25 1012.03 1012.96 1013.98 1015.02 1016.01 1016.89 1017.61 1018.18 1018.60 1018.90 1019.13
1011.90 1011.77 1011.45 1011.04 1010.64 1010.34 1010.21 1010.27 1010.50 1010.86 1011.26 1011.63 1011.90 1012.03 1012.01 1011.86 1011.64 1011.41 1011.22 1011.12 1011.10 1011.17 1011.28 1011.39 1011.47 1011.48 1011.43 1011.34 1011.26 1011.25 1011.38 1011.68 1012.17 1012.86 1013.69 1014.63 1015.60 1016.53 1017.38 1018.11 1018.69 1019.16 1019.52 1019.80
1011.82 1011.50 1011.04 1010.54 1010.12 1009.86 1009.84 1010.05 1010.48 1011.03 1011.62 1012.15 1012.55 1012.79 1012.84 1012.76 1012.58 1012.40 1012.25 1012.19 1012.23 1012.35 1012.51 1012.68 1012.80 1012.85 1012.83 1012.75 1012.67 1012.64 1012.71 1012.94 1013.34 1013.91 1014.64 1015.46 1016.32 1017.18 1017.97 1018.67 1019.27 1019.77 1020.18 1020.53
1011.85 1011.39 1010.82 1010.27 1009.85 1009.66 1009.73 1010.08 1010.64 1011.33 1012.05 1012.69 1013.19 1013.49 1013.61 1013.56 1013.44 1013.29 1013.19 1013.18 1013.27 1013.45 1013.68 1013.91 1014.10 1014.22 1014.26 1014.23 1014.18 1014.16 1014.21 1014.38 1014.70 1015.17 1015.76 1016.46 1017.20 1017.95 1018.67 1019.34 1019.93 1020.45 1020.90 1021.30
1011.98 1011.43 1010.81 1010.25 1009.86 1009.72 1009.88 1010.31 1010.95 1011.71 1012.49 1013.18 1013.71 1014.05 1014.20 1014.20 1014.12 1014.03 1013.98 1014.03 1014.19 1014.43 1014.74 1015.05 1015.32 1015.52 1015.64 1015.69 1015.70 1015.71 1015.77 1015.91 1016.17 1016.54 1017.02 1017.58 1018.20 1018.85 1019.48 1020.09 1020.67 1021.19 1021.67 1022.11
1012.13 1011.56 1010.96 1010.44 1010.10 1010.02 1010.22 1010.68 1011.34 1012.10 1012.86 1013.53 1014.05 1014.39 1014.56 1014.60 1014.58 1014.56 1014.59 1014.73 1014.96 1015.29 1015.67 1016.06 1016.42 1016.71 1016.92 1017.06 1017.15 1017.21 1017.30 1017.43 1017.65 1017.94 1018.32 1018.78 1019.28 1019.82 1020.37 1020.92 1021.47 1021.98 1022.47 1022.92
1012.22 1011.71 1011.19 1010.75 1010.49 1010.47 1010.68 1011.13 1011.74 1012.43 1013.11 1013.71 1014.18 1014.50 1014.68 1014.77 1014.83 1014.90 1015.04 1015.28 1015.61 1016.02 1016.49 1016.96 1017.39 1017.76 1018.06 1018.28 1018.44 1018.57 1018.69 1018.84 1019.03 1019.28 1019.59 1019.95 1020.36 1020.82 1021.29 1021.79 1022.30 1022.79 1023.27 1023.72
1012.17 1011.79 1011.41 1011.11 1010.95 1010.97 1011.19 1011.59 1012.10 1012.67 1013.22 1013.71 1014.11 1014.40 1014.60 1014.76 1014.91 1015.11 1015.37 1015.73 1016.17 1016.67 1017.20 1017.73 1018.22 1018.65 1019.00 1019.29 1019.51 1019.70 1019.87 1020.04 1020.23 1020.46 1020.73 1021.04 1021.39 1021.77 1022.20 1022.65 1023.12 1023.59 1024.05 1024.48
1011.95 1011.76 1011.57 1011.44 1011.40 1011.49 1011.70 1012.02 1012.42 1012.84 1013.24 1013.61 1013.92 1014.19 1014.42 1014.66 1014.93 1015.26 1015.66 1016.15 1016.69 1017.27 1017.85 1018.42 1018.93 1019.38 1019.77 1020.09 1020.35 1020.59 1020.80 1021.00 1021.22 1021.44 1021.70 1021.98 1022.29 1022.64 1023.03 1023.45 1023.89 1024.34 1024.78 1025.18
1011.59 1011.64 1011.67 1011.73 1011.83 1011.99 1012.20 1012.45 1012.72 1012.99 1013.25 1013.50 1013.74 1013.98 1014.26 1014.58 1014.97 1015.44 1015.98 1016.58 1017.21 1017.85 1018.46 1019.03 1019.53 1019.98 1020.36 1020.69 1020.98 1021.24 1021.49 1021.73 1021.97 1022.22 1022.48 1022.76 1023.06 1023.39 1023.76 1024.16 1024.58 1025.00 1025.42 1025.79
1011.21 1011.49 1011.76 1012.01 1012.25 1012.47 1012.69 1012.88 1013.04 1013.19 1013.33 1013.47 1013.65 1013.89 1014.20 1014.62 1015.13 1015.72 1016.38 1017.07 1017.76 1018.43 1019.03 1019.58 1020.05 1020.46 1020.81 1021.13 1021.42 1021.71 1021.98 1022.26 1022.54 1022.81 1023.09 1023.38 1023.68 1024.01 1024.37 1024.75 1025.15 1025.56 1025.95 1026.29
1010.92 1011.42 1011.88 1012.30 1012.67 1012.97 1013.19 1013.34 1013.43 1013.47 1013.51 1013.59 1013.73 1013.97 1014.33 1014.82 1015.43 1016.11 1016.86 1017.61 1018.33 1019.00 1019.58 1020.08 1020.50 1020.85 1021.17 1021.46 1021.75 1022.05 1022.35 1022.66 1022.97 1023.28 1023.58 1023.88 1024.19 1024.52 1024.86 1025.23 1025.61 1025.99 1026.36 1026.68
1010.83 1011.48 1012.10 1012.65 1013.12 1013.48 1013.71 1013.84 1013.87 1013.86 1013.84 1013.87 1013.99 1014.25 1014.65 1015.19 1015.86 1016.61 1017.40 1018.18 1018.90 1019.54 1020.08 1020.52 1020.88 1021.19 1021.47 1021.74 1022.03 1022.34 1022.67 1023.01 1023.35 1023.68 1024.00 1024.31 1024.62 1024.93 1025.25 1025.59 1025.95 1026.31 1026.64 1026.94
1010.98 1011.72 1012.43 1013.06 1013.59 1013.98 1014.23 1014.35 1014.36 1014.32 1014.28 1014.29 1014.42 1014.68 1015.11 1015.69 1016.39 1017.17 1017.97 1018.73 1019.43 1020.03 1020.51 1020.90 1021.22 1021.49 1021.74 1022.01 1022.31 1022.64 1022.99 1023.36 1023.72 1024.07 1024.40 1024.70 1024.99 1025.27 1025.56 1025.87 1026.19 1026.51 1026.82 1027.10
1011.35 1012.11 1012.83 1013.49 1014.03 1014.44 1014.70 1014.82 1014.84 1014.80 1014.76 1014.79 1014.93 1015.21 1015.66 1016.25 1016.95 1017.72 1018.50 1019.23 1019.89 1020.44 1020.88 1021.23 1021.51 1021.77 1022.02 1022.30 1022.62 1022.97 1023.35 1023.75 1024.13 1024.48 1024.80 1025.08 1025.34 1025.58 1025.83 1026.09 1026.36 1026.64 1026.92 1027.17
1011.83 1012.55 1013.24 1013.86 1014.39 1014.79 1015.06 1015.20 1015.24 1015.23 1015.23 1015.29 1015.46 1015.76 1016.22 1016.81 1017.50 1018.23 1018.97 1019.66 1020.26 1020.77 1021.18 1021.50 1021.78 1022.04 1022.31 1022.62 1022.96 1023.35 1023.76 1024.17 1024.55 1024.90 1025.20 1025.46 1025.67 1025.87 1026.07 1026.27 1026.50 1026.74 1026.99 1027.22
1012.30 1012.93 1013.55 1014.12 1014.61 1014.99 1015.27 1015.43 1015.52 1015.56 1015.62 1015.73 1015.95 1016.28 1016.75 1017.32 1017.99 1018.68 1019.37 1020.01 1020.57 1021.05 1021.43 1021.75 1022.03 1022.31 1022.61 1022.95 1023.33 1023.75 1024.17 1024.59 1024.98 1025.31 1025.59 1025.81 1025.99 1026.14 1026.29 1026.46 1026.64 1026.85 1027.07 1027.29
1012.63 1013.16 1013.69 1014.19 1014.64 1015.01 1015.30 1015.51 1015.66 1015.78 1015.92 1016.10 1016.37 1016.75 1017.22 1017.79 1018.43 1019.09 1019.73 1020.33 1020.85 1021.30 1021.67 1021.99 1022.29 1022.59 1022.92 1023.28 1023.69 1024.12 1024.56 1024.98 1025.36 1025.68 1025.93 1026.13 1026.27 1026.40 1026.51 1026.65 1026.81 1026.99 1027.20 1027.41
1012.74 1013.19 1013.64 1014.08 1014.49 1014.86 1015.19 1015.46 1015.69 1015.91 1016.14 1016.41 1016.75 1017.17 1017.67 1018.24 1018.85 1019.48 1020.08 1020.64 1021.14 1021.56 1021.93 1022.25 1022.56 1022.87 1023.22 1023.60 1024.01 1024.44 1024.88 1025.29 1025.65 1025.95 1026.19 1026.37 1026.51 1026.62 1026.73 1026.85 1027.00 1027.18 1027.38 1027.59
1012.63 1013.01 1013.40 1013.80 1014.21 1014.60 1014.97 1015.32 1015.65 1015.98 1016.31 1016.68 1017.10 1017.57 1018.11 1018.68 1019.29 1019.89 1020.47 1020.99 1021.46 1021.87 1022.23 1022.54 1022.85 1023.16 1023.50 1023.87 1024.26 1024.68 1025.09 1025.48 1025.82 1026.12 1026.35 1026.53 1026.67 1026.79 1026.91 1027.05 1027.21 1027.40 1027.60 1027.81
1012.34 1012.68 1013.05 1013.44 1013.86 1014.29 1014.74 1015.17 1015.61 1016.05 1016.49 1016.96 1017.46 1017.99 1018.56 1019.15 1019.75 1020.34 1020.89 1021.40 1021.85 1022.23 1022.57 1022.87 1023.15 1023.44 1023.75 1024.08 1024.44 1024.81 1025.19 1025.55 1025.87 1026.16 1026.40 1026.59 1026.76 1026.91 1027.06 1027.22 1027.40 1027.61 1027.82 1028.03
1011.96 1012.29 1012.65 1013.07 1013.52 1014.01 1014.54 1015.07 1015.62 1016.16 1016.72 1017.28 1017.85 1018.44 1019.04 1019.65 1020.24 1020.82 1021.35 1021.84 1022.26 1022.63 1022.93 1023.20 1023.45 1023.70 1023.95 1024.23 1024.53 1024.85 1025.18 1025.50 1025.81 1026.10 1026.35 1026.57 1026.78 1026.96 1027.15 1027.35 1027.55 1027.77 1027.99 1028.19
1011.57 1011.91 1012.29 1012.74 1013.25 1013.81 1014.42 1015.05 1015.70 1016.34 1016.99 1017.63 1018.26 1018.89 1019.52 1020.13 1020.72 1021.29 1021.80 1022.26 1022.66 1023.00 1023.28 1023.51 1023.71 1023.90 1024.10 1024.31 1024.55 1024.81 1025.09 1025.38 1025.67 1025.96 1026.23 1026.49 1026.73 1026.95 1027.18 1027.40 1027.63 1027.85 1028.06 1028.25
Thickness
5673 5656 5647 5654 5659 5659 5662 5661 5664 5683 5702 5696 5691 5696 5707 5716 5720 5724 5731 5736 5739 5744 5753 5759 5762 5763 5763 5761 5763 5762 5760 5756 5752 5747 5743 5738 5734 5732 5730 5728 5727 5726 5725 5723
5652 5648 5665 5672 5671 5668 5665 5661 5667 5683 5701 5699 5690 5692 5698 5704 5708 5714 5720 5724 5728 5734 5740 5745 5748 5751 5750 5750 5750 5750 5751 5749 5747 5742 5739 5736 5730 5725 5722 5720 5718 5717 5715 5714
5645 5661 5678 5674 5670 5668 5668 5665 5670 5676 5691 5697 5690 5678 5682 5689 5698 5705 5710 5715 5720 5724 5726 5729 5732 5735 5737 5737 5737 5738 5738 5740 5739 5736 5732 5729 5724 5717 5712 5708 5706 5705 5704 5703
5655 5670 5674 5671 5670 5673 5663 5683 5684 5682 5672 5665 5678 5656 5669 5678 5684 5689 5694 5701 5705 5709 5714 5716 5719 5721 5723 5724 5727 5725 5724 5728 5729 5729 5726 5721 5714 5706 5700 5697 5694 5693 5692 5691
5657 5668 5667 5665 5673 5679 5676 5689 5687 5684 5672 5664 5668 5656 5658 5674 5674 5677 5681 5687 5691 5695 5699 5702 5705 5707 5709 5712 5715 5716 5716 5716 5716 5718 5717 5712 5704 5696 5691 5687 5684 5682 5680 5679
5666 5677 5676 5674 5683 5686 5687 5682 5677 5670 5659 5648 5663 5656 5653 5666 5672 5672 5674 5677 5680 5684 5686 5689 5693 5694 5696 5700 5703 5704 5704 5704 5703 5704 5703 5700 5695 5688 5682 5678 5674 5670 5668 5666
5654 5666 5676 5680 5672 5677 5676 5653 5636 5637 5633 5640 5664 5657 5651 5666 5671 5670 5667 5667 5669 5673 5674 5676 5679 5681 5683 5686 5689 5691 5691 5690 5690 5690 5687 5685 5681 5677 5672 5666 5662 5658 5655 5653
5636 5642 5664 5673 5667 5661 5664 5653 5632 5626 5628 5637 5655 5648 5649 5658 5660 5660 5658 5658 5659 5660 5662 5663 5665 5666 5668 5672 5675 5677 5677 5676 5676 5674 5671 5669 5666 5662 5657 5653 5650 5647 5644 5641
5637 5641 5667 5675 5678 5670 5663 5658 5656 5641 5641 5633 5638 5644 5646 5649 5648 5647 5647 5647 5647 5648 5650 5651 5651 5651 5655 5658 5661 5662 5662 5662 5661 5659 5658 5654 5651 5648 5644 5640 5637 5635 5632 5629
5649 5639 5656 5670 5677 5675 5670 5667 5649 5639 5629 5626 5635 5639 5639 5641 5639 5639 5637 5637 5637 5638 5638 5638 5638 5639 5641 5643 5645 5646 5646 5646 5645 5645 5644 5640 5637 5633 5630 5627 5624 5621 5618 5615
5651 5636 5644 5657 5658 5658 5662 5660 5652 5639 5639 5628 5622 5626 5644 5643 5639 5633 5629 5627 5627 5627 5627 5626 5625 5625 5627 5629 5630 5630 5631 5631 5630 5629 5628 5626 5622 5619 5616 5614 5610 5607 5604 5601
5647 5633 5630 5645 5664 5670 5664 5658 5650 5637 5635 5635 5625 5622 5641 5640 5634 5628 5622 5619 5617 5617 5616 5616 5615 5615 5615 5616 5616 5616 5616 5616 5614 5614 5613 5610 5607 5605 5602 5598 5595 5593 5590 5587
5647 5632 5624 5634 5643 5653 5652 5657 5655 5647 5636 5629 5623 5619 5628 5627 5622 5619 5615 5611 5609 5609 5608 5607 5606 5604 5604 5603 5603 5602 5601 5601 5600 5599 5597 5595 5592 5590 5587 5584 5581 5578 5576 5573
5653 5632 5625 5622 5627 5636 5641 5653 5657 5647 5631 5629 5630 5624 5620 5618 5616 5611 5607 5602 5601 5600 5599 5597 5595 5594 5593 5592 5591 5589 5588 5587 5586 5585 5583 5580 5577 5575 5573 5570 5567 5564 5562 5559
5650 5633 5633 5635 5642 5643 5645 5650 5652 5648 5644 5634 5631 5628 5623 5618 5613 5607 5601 5598 5595 5592 5590 5588 5585 5583 5582 5580 5578 5577 5575 5574 5573 5572 5569 5566 5564 5562 5559 5557 5554 5552 5549 5546
5646 5636 5634 5635 5645 5645 5643 5645 5647 5645 5642 5635 5629 5621 5620 5612 5607 5601 5596 5592 5588 5585 5582 5579 5577 5574 5572 5569 5567 5565 5564 5562 5561 5559 5556 5554 5552 5549 5546 5544 5541 5539 5536 5533
5642 5635 5627 5624 5638 5640 5626 5634 5637 5634 5633 5628 5620 5617 5611 5604 5599 5595 5591 5586 5582 5578 5573 5569 5566 5563 5561 5558 5557 5554 5553 5551 5549 5546 5544 5542 5540 5537 5535 5533 5530 5527 5524 5521
5645 5635 5624 5622 5626 5613 5621 5638 5637 5627 5621 5623 5618 5611 5605 5598 5592 5587 5584 5579 5574 5568 5564 5560 5556 5553 5550 5548 5546 5545 5543 5541 5538 5535 5533 5531 5529 5527 5524 5522 5519 5516 5513 5510
5656 5643 5628 5619 5615 5616 5625 5632 5630 5620 5609 5611 5608 5601 5593 5587 5581 5574 5573 5570 5566 5560 5555 5551 5548 5545 5542 5539 5538 5536 5533 5531 5528 5526 5524 5522 5519 5517 5514 5511 5509 5507 5504 5501
5655 5646 5632 5623 5615 5611 5621 5633 5635 5622 5601 5604 5602 5595 5588 5582 5575 5568 5564 5561 5556 5551 5547 5543 5539 5536 5533 5531 5530 5527 5524 5521 5519 5517 5515 5513 5510 5508 5505 5503 5501 5499 5497 5494
5642 5638 5631 5622 5614 5617 5629 5635 5633 5610 5602 5602 5597 5591 5584 5578 5574 5565 5558 5552 5548 5543 5539 5535 5532 5528 5525 5524 5522 5518 5515 5513 5512 5510 5508 5505 5503 5501 5499 5497 5495 5493 5490 5487
5638 5631 5626 5619 5609 5611 5629 5629 5619 5612 5610 5602 5593 5586 5579 5573 5566 5558 5552 5546 5540 5535 5532 5528 5524 5521 5518 5516 5514 5510 5507 5506 5505 5503 5500 5498 5496 5495 5493 5490 5488 5485 5483 5480
5642 5637 5626 5620 5615 5622 5626 5624 5620 5615 5606 5597 5589 5582 5575 5567 5560 5553 5546 5540 5535 5530 5526 5522 5518 5514 5511 5509 5507 5504 5502 5501 5498 5495 5493 5491 5489 5487 5485 5483 5480 5477 5475 5472
5647 5643 5631 5622 5622 5622 5621 5619 5615 5611 5603 5595 5587 5579 5572 5564 5556 5548 5542 5535 5530 5526 5521 5517 5513 5509 5505 5504 5502 5500 5498 5495 5492 5489 5486 5485 5482 5479 5477 5475 5473 5470 5467 5465
5652 5645 5630 5622 5621 5619 5616 5614 5610 5604 5597 5589 5581 5574 5567 5560 5551 5544 5538 5532 5527 5522 5517 5513 5508 5504 5501 5499 5497 5495 5493 5490 5487 5484 5481 5478 5476 5473 5470 5468 5466 5465 5463 5462
5657 5647 5635 5627 5628 5621 5613 5612 5608 5600 5592 5585 5577 5567 5561 5555 5548 5541 5534 5528 5523 5518 5513 5508 5504 5500 5498 5495 5493 5490 5488 5485 5481 5478 5475 5472 5470 5467 5464 5462 5459 5460 5459 5458